Location: Newark
(43.3556°N, 77.1278°E)
Time: 04:55:47
(UTC+00:00)

Envisat - Visible Passes

Search period start: 18 September 2019 00:00
Search period end: 28 September 2019 00:00
Orbit: 764 x 766 km, 98.1° (Epoch: 17 September)

Date Brightness Start Highest point End Pass type
(mag) Time Alt. Az. Time Alt. Az. Time Alt. Az.
18 Sep 5.4 13:58:31 10° SSW 14:02:42 26° W 14:06:56 10° NW visible
19 Sep 3.9 13:20:45 10° S 13:25:44 56° W 13:30:45 10° NNW visible
20 Sep 6.0 14:25:36 10° SW 14:28:28 15° W 14:31:21 10° NW visible
21 Sep 5.0 13:46:50 10° SSW 13:51:22 32° W 13:55:56 10° NNW visible
22 Sep 3.4 13:09:24 10° S 13:14:27 71° WSW 13:19:33 10° NNW visible
23 Sep 5.8 14:13:32 10° SW 14:17:06 19° W 14:20:40 10° NW visible
24 Sep 4.5 13:35:17 10° SSW 13:40:03 40° W 13:44:51 10° NNW visible
25 Sep 6.3 14:42:02 10° W 14:42:56 10° W 14:43:50 10° WNW visible
26 Sep 5.5 14:01:41 10° SSW 14:05:44 24° W 14:09:49 10° NW visible
27 Sep 4.0 13:23:49 10° S 13:28:44 51° W 13:33:42 10° NNW visible
